When you browse on this site, cookies collect data to enhance your experience and personalize the content and advertising you see.
Visit our Privacy Policy to learn more. By continuing to use the site, you agree to this use of cookies and data.
  • In Portugal
  • List of Countries
  • For 7 days
  • Water Temperature
  • Satellite Maps
  • Weather Map
  • Weather Widgets
  • user-avatar
    Login

    Hourly Weather Shumovo

    Today, 25 March, Monday

    Time Temperature Precipitation Wind Pressure Humidity
    00:00 -2°C° 0 mm 3 mps 741 mmHg 86%
    01:00 -2°C° 0 mm 3 mps 741 mmHg 85%
    02:00 -4°C° 0 mm 3 mps 740 mmHg 87%
    03:00 -4°C° 0 mm 3 mps 740 mmHg 87%
    04:00 -5°C° 0 mm 3 mps 741 mmHg 87%
    05:00 -5°C° 0 mm 3 mps 741 mmHg 87%
    06:00 -4°C° 0 mm 3 mps 741 mmHg 85%
    07:00 -2°C° 0 mm 3 mps 741 mmHg 83%
    08:00 -1°C° 0 mm 3 mps 740 mmHg 81%
    09:00 0°C° 0 mm 3 mps 740 mmHg 81%
    10:00 +1°C° 0 mm 3 mps 740 mmHg 80%
    11:00 +1°C° 0 mm 4 mps 740 mmHg 79%
    12:00 +3°C° 0 mm 3 mps 740 mmHg 77%
    13:00 +3°C° 0 mm 3 mps 740 mmHg 74%
    14:00 +4°C° 0 mm 3 mps 740 mmHg 72%
    15:00 +3°C° 0 mm 3 mps 740 mmHg 76%
    16:00 +2°C° 0 mm 3 mps 740 mmHg 80%
    17:00 +1°C° 0 mm 3 mps 740 mmHg 84%
    18:00 0°C° 0 mm 3 mps 740 mmHg 83%
    19:00 0°C° 0 mm 3 mps 740 mmHg 82%
    20:00 -1°C° 0 mm 3 mps 740 mmHg 81%
    21:00 -1°C° 0 mm 3 mps 740 mmHg 80%
    22:00 -2°C° 0 mm 3 mps 740 mmHg 80%
    23:00 -2°C° 0 mm 3 mps 740 mmHg 79%

    Tomorrow, 26 March, Tuesday

    Time Temperature Precipitation Wind Pressure Humidity
    00:00 -2°C° 0 mm 3 mps 740 mmHg 80%
    01:00 -1°C° 0 mm 3 mps 739 mmHg 81%
    02:00 -1°C° 0 mm 3 mps 739 mmHg 82%
    03:00 -1°C° 0.1 mm 2 mps 738 mmHg 83%
    04:00 -1°C° 0.1 mm 2 mps 738 mmHg 84%
    05:00 -1°C° 0.1 mm 2 mps 738 mmHg 85%
    06:00 +1°C° 0.3 mm 2 mps 737 mmHg 86%
    07:00 +1°C° 0.3 mm 2 mps 737 mmHg 87%
    08:00 +1°C° 0.3 mm 2 mps 737 mmHg 88%
    09:00 +2°C° 0 mm 2 mps 737 mmHg 86%
    10:00 +2°C° 0 mm 3 mps 737 mmHg 84%
    11:00 +3°C° 0 mm 4 mps 737 mmHg 83%
    12:00 +4°C° 0.2 mm 4 mps 737 mmHg 78%
    13:00 +4°C° 0.2 mm 4 mps 737 mmHg 73%
    14:00 +5°C° 0.2 mm 4 mps 737 mmHg 68%
    15:00 +4°C° 0.1 mm 4 mps 737 mmHg 72%
    16:00 +3°C° 0.1 mm 3 mps 738 mmHg 75%
    17:00 +2°C° 0.1 mm 3 mps 738 mmHg 79%
    18:00 +1°C° 0.1 mm 3 mps 738 mmHg 81%
    19:00 +1°C° 0.1 mm 3 mps 738 mmHg 84%
    20:00 0°C° 0.1 mm 3 mps 739 mmHg 86%
    21:00 -1°C° 0 mm 3 mps 739 mmHg 86%
    22:00 -1°C° 0 mm 3 mps 739 mmHg 85%
    23:00 -2°C° 0 mm 3 mps 739 mmHg 85%

    Day after tomorrow, 27 March, Wednesday

    Time Temperature Precipitation Wind Pressure Humidity
    00:00 -2°C° 0 mm 2 mps 740 mmHg 85%
    01:00 -3°C° 0 mm 2 mps 740 mmHg 85%
    02:00 -3°C° 0 mm 2 mps 740 mmHg 85%
    03:00 -3°C° 0 mm 2 mps 741 mmHg 85%
    04:00 -4°C° 0 mm 2 mps 741 mmHg 85%
    05:00 -4°C° 0 mm 2 mps 741 mmHg 86%
    06:00 -3°C° 0 mm 2 mps 741 mmHg 82%
    07:00 -2°C° 0 mm 2 mps 742 mmHg 79%
    08:00 +1°C° 0 mm 1 mps 742 mmHg 75%
    09:00 +1°C° 0 mm 1 mps 743 mmHg 71%
    10:00 +1°C° 0 mm 2 mps 743 mmHg 66%
    11:00 +2°C° 0 mm 2 mps 743 mmHg 61%
    12:00 +3°C° 0 mm 2 mps 743 mmHg 58%
    13:00 +3°C° 0 mm 2 mps 744 mmHg 56%
    14:00 +5°C° 0 mm 1 mps 744 mmHg 53%
    15:00 +3°C° 0 mm 2 mps 744 mmHg 57%
    16:00 +2°C° 0 mm 2 mps 744 mmHg 62%
    17:00 +2°C° 0 mm 2 mps 744 mmHg 66%
    18:00 +1°C° 0.1 mm 2 mps 745 mmHg 70%
    19:00 +1°C° 0.1 mm 2 mps 746 mmHg 73%
    20:00 -1°C° 0.1 mm 2 mps 746 mmHg 77%
    21:00 -1°C° 0 mm 2 mps 746 mmHg 79%
    22:00 -2°C° 0 mm 2 mps 747 mmHg 81%
    23:00 -4°C° 0 mm 3 mps 747 mmHg 82%

    28 March, Thursday

    Time Temperature Precipitation Wind Pressure Humidity
    00:00 -4°C° 0 mm 3 mps 747 mmHg 83%
    01:00 -4°C° 0 mm 3 mps 747 mmHg 83%
    02:00 -5°C° 0 mm 3 mps 748 mmHg 84%
    03:00 -5°C° 0 mm 3 mps 748 mmHg 84%
    04:00 -5°C° 0 mm 4 mps 748 mmHg 85%
    05:00 -5°C° 0 mm 4 mps 748 mmHg 86%
    06:00 -4°C° 0 mm 4 mps 749 mmHg 83%
    07:00 -5°C° 0 mm 5 mps 749 mmHg 81%
    08:00 -4°C° 0 mm 5 mps 749 mmHg 79%
    09:00 -2°C° 0 mm 5 mps 750 mmHg 77%
    10:00 -2°C° 0 mm 5 mps 750 mmHg 75%
    11:00 -1°C° 0 mm 5 mps 750 mmHg 73%
    12:00 -1°C° 0 mm 5 mps 750 mmHg 72%
    13:00 -1°C° 0 mm 5 mps 750 mmHg 71%
    14:00 0°C° 0 mm 5 mps 750 mmHg 70%
    15:00 0°C° 0 mm 5 mps 751 mmHg 70%
    16:00 -1°C° 0 mm 5 mps 751 mmHg 71%
    17:00 -1°C° 0 mm 4 mps 751 mmHg 72%
    18:00 -1°C° 0 mm 4 mps 751 mmHg 73%
    19:00 -1°C° 0 mm 3 mps 751 mmHg 74%
    20:00 -1°C° 0 mm 3 mps 752 mmHg 76%
    21:00 -2°C° 0 mm 3 mps 751 mmHg 78%
    22:00 -2°C° 0 mm 3 mps 751 mmHg 80%
    23:00 -4°C° 0 mm 3 mps 751 mmHg 82%

    29 March, Friday

    Time Temperature Precipitation Wind Pressure Humidity
    00:00 -4°C° 0 mm 3 mps 751 mmHg 80%
    01:00 -4°C° 0 mm 3 mps 750 mmHg 78%
    02:00 -4°C° 0 mm 4 mps 750 mmHg 76%
    03:00 -3°C° 0 mm 4 mps 749 mmHg 73%
    04:00 -4°C° 0 mm 5 mps 749 mmHg 71%
    05:00 -4°C° 0 mm 6 mps 748 mmHg 68%
    06:00 -3°C° 0.4 mm 6 mps 747 mmHg 74%
    07:00 -3°C° 0.4 mm 7 mps 746 mmHg 80%
    08:00 -4°C° 0.4 mm 8 mps 745 mmHg 86%
    09:00 -2°C° 0.4 mm 8 mps 745 mmHg 85%
    10:00 -1°C° 0.4 mm 7 mps 744 mmHg 83%
    11:00 0°C° 0.4 mm 7 mps 744 mmHg 82%
    12:00 +2°C° 0.2 mm 7 mps 744 mmHg 77%
    13:00 +2°C° 0.2 mm 8 mps 744 mmHg 71%
    14:00 +2°C° 0.2 mm 8 mps 744 mmHg 66%
    15:00 +3°C° 0 mm 7 mps 744 mmHg 67%
    16:00 +2°C° 0 mm 6 mps 745 mmHg 69%
    17:00 +1°C° 0 mm 5 mps 745 mmHg 71%
    18:00 0°C° 0 mm 4 mps 746 mmHg 75%
    19:00 -1°C° 0 mm 4 mps 746 mmHg 78%
    20:00 -1°C° 0 mm 3 mps 747 mmHg 82%
    21:00 -1°C° 0 mm 3 mps 747 mmHg 84%
    22:00 -2°C° 0 mm 3 mps 748 mmHg 85%
    23:00 -2°C° 0 mm 3 mps 748 mmHg 87%

    30 March, Saturday

    Time Temperature Precipitation Wind Pressure Humidity
    00:00 -2°C° 0 mm 2 mps 748 mmHg 87%
    01:00 -2°C° 0 mm 2 mps 748 mmHg 87%
    02:00 -2°C° 0 mm 2 mps 748 mmHg 87%
    03:00 -2°C° 0 mm 2 mps 748 mmHg 86%
    04:00 -2°C° 0 mm 2 mps 748 mmHg 85%
    05:00 -2°C° 0 mm 2 mps 748 mmHg 84%
    06:00 -1°C° 0 mm 3 mps 748 mmHg 80%
    07:00 0°C° 0 mm 3 mps 748 mmHg 75%
    08:00 0°C° 0 mm 4 mps 748 mmHg 71%
    09:00 +3°C° 0 mm 4 mps 748 mmHg 68%
    10:00 +3°C° 0 mm 5 mps 747 mmHg 65%
    11:00 +5°C° 0 mm 6 mps 747 mmHg 62%
    12:00 +7°C° 0 mm 6 mps 747 mmHg 62%
    13:00 +7°C° 0 mm 6 mps 746 mmHg 62%
    14:00 +8°C° 0 mm 6 mps 746 mmHg 62%
    15:00 +8°C° 0 mm 6 mps 746 mmHg 67%
    16:00 +7°C° 0 mm 5 mps 746 mmHg 72%
    17:00 +6°C° 0 mm 4 mps 746 mmHg 77%
    18:00 +6°C° 0 mm 4 mps 746 mmHg 80%
    19:00 +5°C° 0 mm 4 mps 746 mmHg 84%
    20:00 +4°C° 0 mm 3 mps 746 mmHg 87%
    21:00 +3°C° 0 mm 3 mps 746 mmHg 90%
    22:00 +4°C° 0 mm 2 mps 746 mmHg 92%
    23:00 +4°C° 0 mm 1 mps 746 mmHg 94%
    Show more